Wind_Speed
21 22 23 24 25 27 28 29 29 27 25 23 25 27 27 28 29 30 31 32 33 34 35 36 37 38 38 39 39 40 40 41 41 41 41 40 40 39 39 39 39 38 38 37
22 23 25 25 26 27 28 28 28 27 24 23 26 28 28 28 29 29 30 31 32 33 33 34 35 36 37 37 37 38 38 38 38 38 38 38 37 37 37 37 36 36 36 35
23 24 26 25 24 26 27 27 27 27 24 26 27 28 29 29 29 29 29 30 30 31 32 32 33 33 34 35 35 35 35 35 35 35 35 35 35 35 35 34 34 34 33 33
24 25 26 23 23 25 26 25 26 26 25 26 27 27 27 28 28 28 28 29 29 29 29 30 30 30 31 32 32 32 32 32 32 32 32 32 32 32 32 32 31 31 31 31
25 25 24 22 23 23 25 25 27 27 26 26 26 25 25 26 27 27 27 27 27 28 27 27 28 28 28 29 29 30 30 30 30 30 30 30 30 30 30 30 29 29 29 28
26 26 25 22 23 24 25 24 25 26 26 26 25 24 24 25 25 25 26 26 25 26 26 26 26 26 26 27 27 28 28 28 28 28 28 28 28 28 28 28 27 27 27 27
26 27 25 23 23 23 24 23 23 24 24 25 25 25 25 25 24 24 25 24 24 25 25 25 25 25 25 26 26 26 26 26 27 27 27 27 27 26 26 26 26 26 26 26
26 26 24 23 23 24 24 23 23 23 23 23 24 24 25 25 24 24 24 24 24 24 24 25 25 25 25 25 25 25 25 25 26 26 26 25 25 25 25 25 25 25 25 25
25 24 24 24 24 24 24 24 23 23 22 23 23 23 24 24 24 24 24 24 24 24 24 25 25 25 25 25 25 25 25 25 25 25 25 24 24 24 24 24 24 25 25 25
25 23 24 24 24 25 25 24 24 24 23 23 23 24 24 24 24 24 24 24 24 24 25 25 25 24 24 24 24 24 24 24 24 24 24 24 24 24 24 24 25 25 25 26
26 25 25 25 25 25 25 25 24 24 24 24 24 24 24 24 24 24 24 24 24 25 25 24 24 24 23 24 24 24 24 24 24 24 24 24 25 25 25 25 25 25 26 26
27 26 26 25 25 26 26 25 25 25 24 25 25 25 24 25 24 24 24 24 24 24 24 24 24 24 24 24 24 24 24 24 24 24 25 25 25 25 26 26 26 26 27 27
28 28 27 25 26 26 26 26 25 25 25 25 25 25 25 26 26 25 25 25 24 24 24 25 26 26 25 24 24 24 24 24 25 25 26 26 26 26 26 27 27 27 28 29
27 27 26 26 25 26 26 26 25 25 25 25 26 26 26 26 26 26 26 26 26 25 25 25 26 26 26 25 25 25 25 25 26 26 26 27 27 27 27 28 28 29 29 30
25 24 24 24 25 25 25 25 25 25 25 25 25 25 26 26 27 27 27 27 27 27 26 26 26 26 26 26 26 26 26 26 27 27 27 28 28 28 28 29 29 30 30 31
21 22 22 23 23 24 24 24 25 25 25 26 26 26 26 27 27 27 27 27 27 27 27 27 27 26 26 26 27 27 27 27 27 28 28 28 29 29 30 30 30 30 31 31
19 20 21 22 22 23 23 24 24 24 25 25 26 26 26 27 27 27 27 28 28 28 28 28 28 27 27 27 27 27 28 28 29 28 29 29 29 30 30 30 30 31 32 33
18 19 19 20 21 22 23 23 23 24 24 24 25 25 26 26 27 27 28 28 28 29 29 29 29 29 29 28 28 28 29 29 29 30 30 30 30 30 31 31 31 32 33 33
18 19 19 20 20 20 21 21 22 22 23 24 25 26 26 27 27 27 27 27 28 28 29 29 29 29 30 30 30 30 30 29 30 30 30 30 31 31 31 32 32 33 33 33
19 19 20 20 20 20 20 20 20 21 22 23 24 25 26 27 27 27 27 28 28 29 29 29 29 29 30 30 30 30 30 30 31 31 31 32 32 32 32 33 34 34 35 35
19 19 19 19 19 20 20 20 21 21 21 22 23 24 25 26 26 26 27 28 29 29 29 30 30 30 31 31 31 31 31 31 31 32 32 33 33 33 33 34 35 35 36 36
20 19 19 19 19 20 20 21 21 21 22 22 23 23 24 25 26 26 27 28 29 29 29 30 30 30 31 31 31 31 31 31 31 32 32 33 33 34 34 35 35 35 36 36
19 20 19 19 20 20 20 21 21 21 22 22 22 22 23 24 25 26 27 27 28 28 29 29 30 30 30 30 31 31 31 32 32 32 32 33 34 35 35 35 35 36 36 37
19 19 20 20 20 20 20 20 20 20 20 21 21 21 22 23 24 25 26 26 27 27 28 28 28 29 29 30 31 31 32 32 32 33 33 34 34 35 35 35 36 37 37 38
19 19 20 20 20 20 20 20 20 20 20 20 21 21 22 22 23 24 24 25 26 26 27 28 28 29 30 30 31 32 32 33 33 34 34 35 35 36 37 37 38 39 40 40
21 21 21 21 21 21 21 21 21 21 21 21 21 22 23 23 24 24 24 24 24 25 25 26 27 28 29 30 31 31 32 33 34 34 35 36 37 38 39 40 41 41 41 42
23 23 23 23 23 23 23 23 24 23 23 24 24 24 24 24 24 25 26 26 26 27 27 28 29 29 30 30 31 32 33 34 35 36 37 38 39 40 41 41 42 42 43 43
Wind_Direction
242 242 242 242 243 244 245 247 250 251 251 248 249 248 247 246 246 246 246 247 248 249 250 251 253 254 255 256 257 258 259 260 262 263 264 265 266 268 270 271 273 274 276 277
246 245 246 246 246 248 250 251 253 252 250 249 248 248 248 247 247 247 248 249 250 251 252 253 254 254 255 256 257 258 259 260 261 262 263 264 265 267 269 270 271 273 274 276
249 249 250 249 250 251 252 252 252 252 251 248 249 250 250 250 250 251 250 250 252 253 253 254 255 255 255 256 256 258 259 259 260 261 262 263 264 266 267 268 270 271 273 274
254 252 252 254 251 252 253 252 253 253 252 253 253 252 252 252 253 252 251 250 251 253 253 254 254 254 255 255 256 256 256 257 258 259 260 262 264 265 266 267 269 270 272 274
258 256 254 254 256 255 255 255 254 254 252 254 254 254 254 253 252 251 251 252 252 253 254 254 254 254 256 256 256 256 256 257 258 259 260 261 263 264 266 267 268 270 272 274
259 259 257 255 256 256 257 257 255 255 254 254 254 254 251 250 250 250 251 252 252 252 254 255 255 256 257 257 257 257 257 257 257 258 259 260 262 264 265 267 269 270 272 274
259 259 258 257 257 257 257 257 257 256 255 253 252 251 250 250 251 251 252 252 252 252 253 254 255 256 257 257 257 257 258 258 257 258 259 260 262 264 265 267 269 270 271 274
257 259 259 258 257 257 257 256 256 256 255 254 252 251 250 250 251 251 252 252 253 253 254 255 256 257 258 258 258 258 258 258 258 258 259 260 262 264 266 267 268 270 272 274
257 258 258 257 257 257 256 255 255 255 254 254 253 251 251 251 251 251 251 253 254 255 255 256 257 258 259 259 259 259 259 258 257 258 259 260 262 264 266 266 268 270 273 276
257 256 256 255 256 256 256 255 255 255 255 255 253 252 252 252 252 252 253 255 256 256 256 256 256 257 258 259 259 258 258 258 258 258 260 261 262 264 266 267 269 271 274 277
257 255 254 254 254 255 256 255 255 255 254 254 253 253 253 252 252 253 254 256 256 256 255 255 256 258 259 260 260 259 258 257 258 260 260 261 263 265 267 268 270 272 275 278
255 253 254 253 253 254 255 254 254 255 255 254 254 253 252 253 254 255 256 257 258 257 255 255 257 259 260 261 261 259 258 258 259 260 261 262 264 266 267 269 270 273 276 279
253 251 251 252 252 253 253 252 253 254 255 255 254 253 254 254 255 255 256 257 258 259 258 258 258 259 260 261 261 260 259 259 260 261 262 264 266 267 268 269 272 274 277 280
253 250 248 250 252 252 252 252 252 254 255 255 254 255 255 255 255 256 257 258 259 260 260 260 260 260 260 260 261 261 261 260 261 263 264 265 267 267 269 271 273 275 278 281
250 249 248 249 250 250 251 253 254 255 255 255 255 255 255 256 256 256 257 258 258 259 260 260 261 261 260 260 260 261 262 262 262 264 265 267 268 269 270 272 274 277 279 281
250 250 251 251 251 250 250 252 253 254 255 256 256 256 256 256 257 258 258 259 259 259 259 260 260 261 261 261 261 262 262 262 263 265 266 268 269 270 271 273 275 277 279 282
251 252 254 254 253 253 253 253 254 255 256 256 256 256 257 258 259 259 260 259 259 259 260 260 260 260 261 262 263 263 263 263 264 266 267 269 270 271 272 273 275 277 279 282
255 255 257 257 255 254 255 255 256 256 256 257 257 258 259 260 261 261 261 261 261 260 259 259 259 260 260 261 263 264 265 266 266 267 268 270 272 273 273 274 276 278 280 283
260 259 261 259 256 255 255 256 257 257 258 259 259 260 261 262 262 263 262 262 262 261 260 260 260 260 260 261 262 264 265 266 267 268 269 270 272 273 274 275 277 279 281 283
262 261 261 260 257 256 255 257 259 260 261 261 262 263 263 263 263 263 263 263 262 262 262 261 260 261 261 262 263 264 265 266 267 268 269 270 272 273 275 277 278 281 282 283
262 261 260 259 258 258 258 259 261 263 265 266 266 267 266 265 264 264 265 264 264 263 263 262 262 262 263 263 264 264 266 266 267 268 269 271 272 274 276 278 280 282 282 284
262 261 260 260 260 260 260 261 263 265 267 268 269 268 268 267 267 266 266 266 265 264 264 263 263 263 263 264 264 265 266 267 268 268 269 270 272 274 276 278 280 282 283 284
265 263 261 260 260 261 262 263 265 267 268 270 270 270 270 270 269 269 268 267 266 266 265 265 265 264 264 264 265 266 267 268 268 270 271 272 273 275 277 278 280 281 282 284
264 262 261 261 260 261 262 263 265 268 270 271 271 272 273 273 273 272 270 269 268 267 266 265 265 266 266 266 266 266 267 268 269 270 272 273 275 276 277 278 280 281 283 285
263 262 261 260 260 261 262 264 266 268 270 273 274 274 275 275 275 274 272 271 269 268 267 266 266 267 267 268 267 268 268 269 270 271 272 274 275 277 278 279 281 282 284 285
262 261 260 260 261 261 262 264 267 269 272 275 277 277 277 276 276 276 275 273 272 272 271 271 270 270 270 270 270 270 270 271 272 273 274 276 277 278 279 281 282 283 284 286
261 261 261 262 263 263 264 266 267 269 272 275 278 278 279 279 278 276 275 275 275 276 275 275 274 274 274 273 273 273 273 274 275 276 277 278 279 280 281 282 283 284 285 285
Height
5638 5639 5640 5642 5643 5644 5645 5647 5648 5651 5653 5656 5656 5656 5658 5660 5661 5663 5664 5666 5667 5669 5670 5672 5674 5676 5678 5680 5682 5683 5685 5687 5688 5690 5691 5692 5693 5693 5693 5694 5693 5693 5693 5692
5633 5634 5634 5636 5638 5639 5640 5641 5642 5644 5647 5649 5648 5649 5651 5652 5654 5656 5657 5659 5660 5661 5663 5664 5666 5667 5669 5671 5673 5674 5676 5677 5679 5680 5681 5682 5683 5684 5684 5684 5684 5684 5683 5683
5628 5628 5628 5631 5633 5633 5634 5635 5636 5637 5641 5640 5641 5642 5644 5645 5647 5649 5650 5651 5653 5654 5655 5656 5658 5659 5661 5662 5664 5665 5667 5668 5670 5671 5672 5673 5674 5674 5675 5675 5675 5675 5674 5674
5621 5623 5623 5628 5627 5627 5627 5629 5630 5631 5633 5633 5634 5635 5637 5639 5640 5641 5643 5644 5645 5647 5648 5649 5650 5652 5653 5654 5655 5657 5658 5660 5661 5662 5663 5664 5665 5666 5666 5666 5666 5666 5666 5666
5615 5615 5617 5621 5621 5620 5621 5623 5623 5624 5626 5627 5627 5629 5631 5632 5633 5634 5636 5637 5638 5640 5641 5642 5643 5644 5646 5647 5648 5649 5650 5652 5653 5654 5655 5656 5657 5657 5658 5658 5658 5658 5658 5657
5609 5609 5611 5615 5614 5614 5616 5617 5617 5617 5619 5620 5621 5623 5625 5625 5626 5628 5629 5630 5632 5633 5634 5636 5637 5638 5639 5640 5641 5642 5643 5644 5645 5646 5647 5648 5649 5649 5650 5650 5650 5650 5650 5650
5602 5602 5604 5608 5607 5608 5610 5611 5611 5611 5612 5614 5615 5617 5618 5619 5620 5622 5623 5624 5625 5627 5628 5629 5630 5631 5632 5633 5634 5635 5636 5637 5638 5639 5640 5641 5641 5642 5642 5642 5643 5643 5642 5642
5595 5595 5600 5600 5600 5602 5603 5603 5604 5605 5606 5607 5608 5610 5611 5613 5614 5616 5617 5618 5619 5620 5621 5622 5624 5624 5625 5626 5627 5628 5628 5629 5630 5631 5632 5633 5634 5634 5635 5635 5635 5635 5635 5634
5589 5592 5592 5592 5593 5594 5595 5597 5598 5599 5600 5601 5602 5604 5605 5607 5608 5609 5611 5612 5613 5614 5615 5616 5617 5618 5618 5619 5620 5621 5622 5623 5623 5624 5625 5626 5627 5627 5628 5628 5628 5628 5627 5627
5581 5583 5584 5585 5586 5587 5588 5590 5591 5593 5594 5595 5596 5598 5599 5600 5602 5603 5604 5605 5606 5607 5608 5609 5610 5611 5612 5613 5613 5614 5615 5616 5617 5618 5618 5619 5620 5620 5621 5621 5621 5621 5620 5620
5573 5576 5576 5578 5579 5580 5581 5583 5584 5586 5587 5588 5590 5591 5593 5594 5595 5596 5598 5599 5600 5601 5602 5603 5604 5604 5605 5606 5606 5607 5608 5609 5610 5611 5611 5612 5613 5613 5613 5613 5613 5613 5613 5612
5565 5567 5568 5571 5572 5573 5574 5576 5577 5579 5580 5581 5583 5585 5586 5587 5589 5590 5591 5592 5593 5594 5595 5596 5597 5598 5598 5599 5599 5600 5601 5602 5603 5604 5604 5605 5605 5606 5606 5606 5605 5605 5604 5604
5556 5558 5560 5563 5564 5565 5567 5569 5570 5572 5573 5575 5576 5578 5579 5581 5582 5583 5584 5586 5586 5587 5588 5589 5590 5591 5591 5592 5592 5593 5594 5595 5596 5596 5597 5597 5598 5598 5598 5598 5597 5597 5596 5595
5547 5550 5553 5555 5557 5558 5560 5562 5563 5565 5566 5568 5569 5571 5572 5574 5575 5576 5577 5578 5579 5580 5581 5582 5583 5583 5584 5585 5585 5586 5587 5587 5588 5589 5589 5590 5590 5590 5590 5590 5589 5589 5588 5586
5540 5542 5545 5548 5550 5552 5553 5555 5556 5558 5559 5560 5562 5563 5565 5566 5567 5569 5570 5571 5572 5573 5574 5574 5575 5576 5576 5577 5578 5578 5579 5580 5580 5581 5581 5581 5581 5581 5581 5581 5580 5580 5579 5577
5534 5537 5539 5541 5543 5545 5546 5548 5549 5551 5552 5553 5555 5556 5558 5559 5560 5561 5562 5563 5564 5565 5566 5566 5567 5568 5568 5569 5570 5570 5571 5571 5572 5572 5573 5573 5573 5573 5572 5572 5571 5570 5569 5568
5530 5532 5533 5535 5537 5538 5540 5541 5542 5543 5545 5546 5547 5549 5550 5551 5552 5553 5554 5555 5556 5557 5557 5558 5559 5559 5560 5561 5561 5562 5562 5563 5563 5564 5564 5564 5564 5563 5563 5563 5562 5561 5560 5558
5525 5527 5528 5529 5530 5532 5533 5534 5535 5536 5538 5539 5540 5541 5542 5543 5544 5545 5546 5546 5547 5548 5548 5549 5550 5551 5552 5552 5553 5553 5553 5554 5554 5555 5555 5555 5554 5554 5554 5553 5552 5551 5550 5548
5520 5521 5522 5523 5524 5525 5526 5527 5529 5530 5531 5532 5533 5534 5534 5535 5536 5536 5537 5538 5538 5539 5540 5540 5541 5542 5543 5543 5544 5544 5544 5545 5545 5545 5545 5545 5545 5544 5544 5543 5542 5541 5539 5538
5515 5516 5516 5517 5518 5519 5520 5521 5522 5523 5524 5524 5525 5526 5526 5527 5527 5528 5529 5529 5529 5530 5530 5531 5532 5533 5533 5534 5534 5535 5535 5535 5535 5535 5535 5535 5535 5534 5534 5533 5532 5530 5529 5527
5510 5510 5511 5511 5512 5513 5514 5515 5516 5516 5517 5517 5518 5518 5518 5519 5519 5520 5520 5520 5520 5521 5521 5522 5523 5523 5524 5524 5525 5525 5525 5525 5525 5525 5525 5525 5525 5524 5523 5522 5521 5519 5518 5516
5504 5505 5505 5506 5506 5507 5508 5509 5509 5510 5510 5510 5510 5510 5510 5510 5511 5511 5511 5511 5511 5512 5512 5512 5513 5513 5514 5514 5515 5515 5515 5515 5515 5515 5515 5514 5514 5513 5512 5511 5510 5508 5506 5505
5499 5499 5500 5500 5501 5501 5502 5502 5503 5503 5503 5503 5503 5503 5503 5503 5503 5503 5503 5503 5503 5503 5503 5503 5503 5504 5504 5504 5505 5505 5505 5505 5505 5505 5504 5504 5503 5502 5501 5500 5499 5497 5495 5493
5493 5493 5494 5494 5494 5495 5495 5496 5496 5496 5496 5496 5496 5496 5495 5495 5495 5494 5494 5494 5494 5494 5494 5494 5494 5494 5494 5495 5495 5495 5495 5495 5494 5494 5494 5493 5492 5491 5490 5489 5487 5485 5483 5481
5487 5487 5487 5488 5488 5488 5489 5489 5490 5490 5489 5489 5489 5489 5488 5488 5487 5487 5486 5486 5485 5485 5485 5485 5485 5485 5485 5485 5485 5485 5484 5484 5484 5483 5482 5481 5480 5479 5478 5476 5475 5473 5471 5468
5480 5480 5481 5481 5481 5482 5482 5483 5483 5483 5483 5482 5482 5481 5481 5480 5479 5479 5478 5478 5477 5477 5477 5476 5476 5476 5475 5475 5474 5474 5473 5473 5472 5472 5471 5470 5468 5467 5465 5464 5462 5460 5457 5455
5473 5473 5474 5474 5474 5475 5475 5475 5475 5475 5475 5475 5475 5474 5473 5472 5471 5471 5470 5470 5469 5469 5468 5468 5467 5466 5466 5465 5464 5463 5463 5462 5461 5460 5459 5457 5456 5454 5452 5450 5448 5446 5443 5441